Temperature
19 19 18 18 18 18 17 17 17 17 16 16 16 16 16 16 16 16 16 16 16 16 15 15 15 15 15 15 15 15 15 15 15 15 15 16 15 15 15 15 15 15 15
19 19 18 18 18 18 17 17 17 17 16 16 16 16 16 16 16 16 16 16 16 16 15 15 15 15 15 15 15 15 15 15 15 15 15 15 15 15 15 15 15 15 15
20 19 18 18 18 18 18 17 17 17 17 16 16 16 16 16 16 16 16 16 16 16 15 15 15 15 15 15 15 15 15 15 15 15 15 15 15 15 15 15 15 15 15
20 19 19 18 18 18 18 17 17 17 17 16 16 16 16 16 16 16 16 16 16 15 15 15 15 15 15 15 15 15 15 15 15 15 15 15 15 15 15 15 15 15 15
20 20 19 19 18 18 18 17 17 17 17 17 16 16 16 16 16 16 16 16 15 15 15 15 15 15 15 15 15 15 15 15 15 15 15 15 15 15 15 15 15 15 15
20 20 19 19 18 18 18 17 17 17 17 16 16 16 16 16 16 16 16 16 15 15 15 15 15 15 15 15 15 15 15 15 15 15 15 15 15 15 15 15 15 14 14
21 20 19 19 18 18 18 17 17 17 17 16 16 16 16 16 16 16 16 16 15 15 15 15 15 15 15 15 15 15 15 15 15 15 15 15 15 15 15 15 15 14 14
21 20 19 19 18 18 18 17 17 17 17 16 16 16 16 16 16 16 16 16 16 15 15 15 15 15 15 15 15 15 15 15 15 15 15 15 15 15 15 14 14 14 14
21 20 20 19 18 18 18 17 17 17 17 17 16 16 16 16 16 16 16 16 15 15 15 15 15 15 15 15 15 15 15 15 15 15 15 15 14 14 14 14 14 14 14
21 20 20 19 18 18 18 17 17 17 17 17 17 16 16 16 16 16 16 16 16 15 15 15 15 15 15 15 15 15 15 15 15 14 14 14 14 14 14 14 14 14 14
21 21 20 19 19 18 18 18 17 17 17 17 17 17 16 16 16 16 16 16 16 15 15 15 15 15 15 15 15 15 15 14 14 14 14 14 14 14 14 14 14 14 14
21 21 20 19 19 18 18 18 17 17 17 17 17 17 16 16 16 16 16 16 16 15 15 15 15 15 15 15 14 14 14 14 14 14 14 14 14 14 13 14 13 13 13
21 21 20 19 19 18 18 18 17 17 17 17 17 17 16 16 16 16 16 15 15 15 15 15 15 15 15 15 14 14 14 14 14 14 14 14 14 14 13 13 13 13 13
21 20 20 19 19 18 18 18 18 17 17 17 17 17 16 16 16 16 16 15 15 15 15 15 15 15 15 15 14 14 14 14 14 14 14 14 14 13 13 13 13 13 13
21 21 20 19 19 19 18 18 18 18 17 17 17 17 17 16 16 16 16 15 15 15 15 15 15 15 15 14 14 14 14 14 14 13 13 13 13 13 13 13 13 13 12
21 21 20 20 19 19 19 18 18 18 18 17 17 17 17 16 16 16 16 16 15 15 15 15 15 15 15 14 14 14 14 14 14 13 13 13 13 13 13 13 13 13 12
21 21 20 20 20 19 19 19 18 18 18 17 17 17 17 17 16 16 16 15 15 15 15 15 15 15 15 14 14 14 14 14 14 13 13 13 13 13 13 13 12 12 12
21 21 20 20 20 19 19 19 18 18 18 17 17 17 17 16 16 16 16 15 15 15 15 15 15 15 15 14 14 14 14 14 14 13 13 13 13 12 12 12 12 12 12
21 21 20 20 20 19 19 19 18 18 18 17 17 17 17 16 16 16 15 15 15 15 15 15 15 15 14 14 14 14 14 14 13 13 13 13 13 12 12 12 12 12 12
21 21 21 20 20 19 19 19 18 18 18 17 17 17 17 16 16 16 15 15 15 15 15 15 14 14 14 14 14 14 14 14 13 13 13 13 12 12 12 12 12 12 11
21 21 20 20 20 19 19 19 18 18 18 17 17 17 17 16 16 16 15 15 15 15 14 14 14 14 14 14 14 14 14 13 13 13 13 12 12 12 12 12 11 11 11
20 20 20 20 19 19 19 19 18 18 18 17 17 17 17 16 16 16 15 15 15 15 14 14 14 14 14 14 14 14 13 13 13 13 12 12 12 12 12 11 11 11 11
20 19 19 19 19 19 19 19 18 18 18 17 17 17 17 16 16 16 15 15 15 14 14 14 14 14 14 14 14 14 13 13 13 12 12 12 11 11 11 11 11 11 10
19 19 19 19 19 18 18 18 18 18 17 17 17 17 16 16 16 16 15 15 15 14 14 14 14 14 14 14 14 13 13 13 12 12 12 11 11 11 11 10 10 10 10
19 19 18 18 18 18 18 18 18 17 17 17 17 16 16 16 16 15 15 15 14 14 14 14 14 14 14 14 13 13 13 13 12 12 11 11 11 10 10 10 10 9 9
18 18 18 18 18 18 18 18 17 17 17 16 16 16 16 16 15 15 15 14 14 14 14 14 14 14 13 13 13 13 13 12 12 11 11 10 10 10 10 9 9 9 9
Wind_Speed
9 9 8 7 6 6 6 6 6 4 4 2 2 2 2 2 3 3 5 5 6 6 5 3 3 4 4 3 4 3 3 2 2 2 2 2 3 4 3 3 4 5 7
10 11 10 8 7 6 6 7 6 5 5 2 2 2 2 2 3 2 4 5 5 5 4 3 3 4 3 4 4 3 2 2 2 2 1 1 3 3 3 3 3 4 6
12 12 11 9 8 7 6 6 6 6 6 4 2 2 2 2 2 2 2 3 5 6 5 4 3 2 3 3 3 3 3 2 3 3 2 2 1 1 2 3 4 4 4
9 11 11 10 9 7 7 6 6 6 6 5 3 2 2 2 2 2 2 2 4 5 5 5 4 3 3 3 2 3 2 2 2 2 2 1 2 2 1 2 3 4 5
10 11 11 10 9 8 7 6 5 5 5 5 4 1 2 1 2 3 3 3 3 4 5 5 4 4 3 3 4 4 3 2 2 2 2 3 2 1 2 1 1 2 2
10 11 10 9 8 8 6 5 5 5 4 4 4 3 2 2 3 3 3 2 3 2 3 4 4 4 3 3 3 3 3 3 3 3 3 2 2 2 2 1 1 1 1
11 11 11 10 9 9 8 6 6 6 5 5 4 4 3 2 3 3 3 2 3 2 2 3 3 3 2 3 3 2 2 2 3 3 3 3 3 2 2 2 1 1 0
11 11 11 10 10 10 9 8 7 7 6 5 4 4 4 2 3 3 3 2 2 3 3 3 3 3 3 3 3 2 2 2 3 3 3 3 3 4 3 2 2 2 2
11 11 11 11 10 10 9 9 9 7 7 5 4 4 4 3 3 3 2 2 2 2 3 3 3 3 3 3 3 2 2 3 4 3 3 3 2 3 3 2 2 2 1
11 11 11 11 11 10 9 9 9 8 7 6 5 5 5 4 3 2 3 3 2 3 3 3 3 4 3 3 3 2 2 3 3 2 3 3 3 3 2 2 2 2 2
10 11 10 10 10 9 9 8 8 8 7 7 6 5 5 5 4 3 3 3 2 2 2 2 2 4 4 3 3 2 2 2 2 2 3 3 3 2 2 2 3 3 3
9 10 10 10 10 10 10 9 9 8 7 7 7 6 5 5 5 4 4 3 3 2 2 2 2 3 3 2 3 2 1 2 3 3 4 3 2 2 3 2 2 2 2
9 9 9 9 9 9 9 9 9 9 8 7 7 7 7 6 5 5 4 4 4 3 2 2 2 3 2 2 2 2 2 2 3 3 3 3 3 2 2 1 2 1 2
9 9 8 8 8 8 9 9 9 9 9 8 7 7 7 6 5 5 4 4 4 3 3 2 3 3 2 1 2 2 2 2 2 3 3 3 3 3 2 2 2 2 2
8 9 9 9 9 9 8 9 9 9 9 9 8 8 7 7 6 5 5 4 4 4 3 3 3 3 2 1 2 1 2 2 2 2 2 3 5 6 4 3 3 3 2
7 8 9 9 10 10 9 8 9 9 9 9 9 8 7 7 7 6 5 4 4 3 3 3 3 3 2 4 4 2 2 1 1 1 1 2 3 4 4 5 4 3 2
6 7 8 8 9 9 9 9 9 9 10 10 9 9 8 8 7 7 6 5 5 4 3 3 3 4 4 5 4 2 0 1 1 1 1 1 2 3 2 2 1 1 1
6 6 6 7 7 8 9 8 9 9 9 9 9 9 9 8 7 7 6 6 5 5 4 4 3 3 4 5 5 2 1 1 1 0 0 1 1 1 2 2 1 0 1
5 5 5 6 6 7 9 9 9 9 8 8 9 9 9 9 8 7 7 6 5 5 5 4 4 4 4 6 6 4 1 1 1 1 0 1 1 2 3 2 1 1 1
4 4 5 5 6 6 8 8 8 9 9 9 9 9 9 9 8 8 7 5 5 5 5 4 4 5 4 7 8 6 2 2 1 1 0 1 2 3 3 1 0 2 3
4 4 4 4 5 5 7 8 8 8 8 8 8 8 9 9 8 7 6 6 5 5 5 4 4 4 4 7 8 7 3 2 1 1 1 1 4 3 2 1 0 2 2
4 5 4 3 4 5 6 7 7 7 8 9 8 8 8 8 8 7 6 6 6 6 5 4 4 3 4 6 7 8 6 3 1 1 1 2 4 3 1 1 2 3 2
3 3 4 4 4 4 5 6 5 7 8 9 9 8 8 7 7 7 7 6 5 5 5 4 4 3 3 4 8 8 6 5 2 1 2 3 3 1 1 2 3 2 1
3 3 4 4 3 3 5 5 5 6 8 9 9 8 8 7 7 6 6 5 5 5 5 5 4 3 3 3 3 3 4 4 3 2 2 2 2 1 1 2 2 1 1
2 3 3 3 4 3 4 6 6 6 7 7 8 8 7 7 6 5 3 4 3 5 5 4 4 4 4 4 7 6 4 4 4 3 1 1 1 1 1 1 1 1 1
3 3 3 3 3 4 4 5 6 7 7 7 7 6 6 6 6 6 4 4 3 5 6 6 6 4 5 7 7 7 6 6 6 3 2 2 2 2 1 1 1 0 1
Wind_Direction
168 156 156 152 160 159 150 149 147 134 111 89 82 87 74 56 61 65 51 32 41 38 44 54 56 54 58 47 68 70 51 36 49 50 39 45 60 79 65 48 53 56 64
167 162 166 163 167 162 157 152 145 131 118 114 118 130 123 102 89 63 50 33 46 45 51 61 68 67 62 50 61 68 40 9 34 50 51 75 33 25 64 63 59 59 59
174 169 170 167 166 167 166 154 149 143 137 135 103 79 75 65 83 82 60 38 53 47 37 43 70 82 76 73 69 68 60 16 360 45 61 64 75 42 28 51 68 63 55
176 169 169 167 169 167 162 161 162 153 141 133 110 114 107 103 105 118 111 84 67 64 46 37 47 70 73 72 57 73 68 59 14 2 14 64 113 124 89 18 53 66 63
175 168 169 165 167 161 160 165 155 137 128 126 125 125 95 99 104 103 101 90 71 65 64 45 39 55 61 71 64 62 51 54 47 21 5 16 13 31 103 100 34 44 56
175 167 163 158 157 150 153 155 143 127 127 133 144 147 117 102 102 101 103 105 95 62 69 62 49 56 53 59 62 66 61 44 34 22 28 43 33 22 51 79 86 93 75
171 168 163 163 159 156 159 155 146 146 151 160 161 146 142 139 123 117 115 104 102 91 78 75 64 60 54 58 56 57 74 66 56 35 24 32 27 36 56 65 58 63 91
171 170 166 163 162 163 164 162 162 161 161 165 159 150 149 133 115 111 111 101 97 105 105 97 92 80 58 69 58 32 34 50 64 60 49 35 27 37 56 64 62 34 27
168 166 164 163 165 168 169 169 167 163 161 163 157 153 139 123 113 118 110 104 110 112 109 114 106 94 71 58 66 49 41 48 40 40 51 47 44 45 42 40 64 87 55
165 164 165 164 167 167 169 171 167 166 163 165 166 153 138 133 133 122 108 107 99 99 115 128 125 117 109 87 60 46 36 70 71 58 59 47 45 42 37 25 25 61 96
163 162 163 164 161 163 166 168 166 166 164 166 161 148 143 146 142 134 130 121 110 115 122 107 109 117 116 109 92 48 28 47 68 74 81 70 59 45 32 36 35 43 70
154 155 156 157 159 168 173 172 171 171 167 167 161 154 154 157 156 156 150 144 136 140 142 130 119 111 107 108 117 105 52 48 48 53 65 66 70 56 42 44 42 53 71
147 151 154 161 166 173 175 175 175 172 166 165 162 162 165 167 164 160 159 160 161 161 157 140 133 121 121 117 108 104 84 78 70 61 62 57 62 52 50 49 38 45 61
154 155 159 166 169 174 178 177 177 173 167 165 166 166 165 162 161 158 161 167 162 154 151 147 133 131 130 125 128 112 86 82 81 76 67 57 62 47 36 47 29 49 54
156 161 167 171 172 176 179 178 175 174 171 166 170 172 169 163 162 161 163 167 163 161 157 151 138 136 131 108 86 91 102 102 97 90 88 88 86 76 60 55 38 41 41
163 168 174 174 176 178 178 178 176 175 171 169 172 168 165 162 164 166 170 171 164 163 163 160 149 142 129 116 101 67 31 31 102 124 122 123 105 102 91 77 64 64 58
166 174 180 177 181 180 176 176 178 176 172 169 169 166 166 166 171 174 172 171 166 170 170 168 157 150 147 142 140 132 324 346 19 76 113 91 96 110 127 102 68 41 55
163 173 178 174 178 177 174 173 172 173 172 169 167 166 170 170 170 171 172 173 171 171 174 180 175 160 169 164 165 177 233 265 280 287 146 146 140 135 127 112 92 224 226
158 168 175 170 171 175 171 169 170 171 169 170 171 172 171 166 168 173 173 174 176 173 174 180 179 172 171 173 171 165 201 211 225 215 207 157 133 101 98 93 356 325 303
147 156 166 166 168 169 165 166 171 173 175 174 175 171 166 163 169 172 169 168 173 175 171 176 180 177 172 176 176 172 189 218 217 194 136 106 118 104 93 115 349 309 302
135 143 155 167 172 168 165 168 173 180 173 166 165 162 161 163 165 165 165 165 167 168 174 181 188 181 172 171 175 175 188 210 216 184 181 150 139 132 117 75 281 279 300
133 150 158 163 168 167 173 177 178 172 158 155 155 160 161 165 167 165 170 171 169 173 182 182 188 182 170 164 176 181 191 196 172 202 168 151 150 156 184 239 272 303 328
137 145 152 157 169 173 179 179 170 158 154 155 159 163 162 161 162 165 170 173 172 175 182 182 189 188 168 164 168 173 184 193 181 149 132 145 167 179 228 266 285 308 289
152 148 148 156 168 177 178 172 162 156 157 162 164 165 164 164 166 165 169 174 180 181 185 189 188 179 165 155 156 164 170 172 174 171 151 156 195 210 228 266 271 241 228
149 157 162 165 173 184 178 166 162 163 166 167 165 167 166 163 162 155 155 175 174 177 179 184 176 173 183 187 171 168 171 169 169 159 155 170 176 212 234 238 244 236 260
159 163 163 164 182 185 179 171 171 171 172 172 170 167 164 160 157 149 129 84 119 133 146 151 152 147 152 146 145 147 148 151 156 148 170 198 203 211 216 211 245 278 276
Height
1528 1531 1533 1535 1538 1540 1542 1543 1545 1546 1547 1548 1548 1549 1549 1550 1550 1550 1550 1551 1551 1551 1551 1552 1552 1553 1553 1553 1553 1553 1554 1554 1554 1555 1555 1555 1555 1555 1555 1555 1554 1554 1553
1527 1529 1532 1535 1537 1539 1541 1543 1545 1546 1547 1548 1549 1550 1550 1550 1551 1551 1551 1551 1551 1552 1552 1553 1553 1553 1553 1554 1554 1554 1554 1555 1555 1556 1556 1556 1558 1557 1557 1556 1556 1555 1555
1524 1527 1530 1533 1536 1538 1541 1543 1544 1546 1547 1548 1549 1550 1551 1551 1551 1552 1552 1552 1552 1553 1553 1554 1554 1554 1554 1554 1555 1555 1555 1555 1556 1556 1557 1557 1558 1558 1559 1558 1558 1557 1556
1522 1525 1528 1532 1535 1537 1540 1542 1544 1546 1547 1548 1549 1550 1551 1552 1552 1552 1553 1553 1553 1553 1554 1554 1555 1555 1555 1555 1555 1556 1556 1556 1556 1557 1557 1558 1558 1559 1559 1560 1559 1558 1558
1520 1523 1527 1530 1533 1536 1539 1541 1543 1545 1546 1548 1549 1550 1551 1552 1552 1553 1553 1554 1554 1554 1555 1555 1555 1555 1556 1556 1556 1556 1557 1557 1557 1557 1557 1558 1558 1559 1559 1560 1560 1560 1559
1518 1522 1525 1529 1532 1535 1537 1540 1542 1544 1545 1547 1549 1550 1551 1552 1553 1553 1554 1554 1554 1555 1555 1555 1556 1556 1556 1557 1557 1557 1558 1558 1558 1558 1558 1558 1558 1559 1559 1559 1560 1560 1560
1515 1520 1523 1527 1530 1533 1536 1538 1541 1543 1545 1546 1548 1549 1550 1552 1553 1553 1554 1554 1555 1555 1556 1556 1556 1556 1557 1557 1558 1558 1558 1558 1558 1558 1558 1559 1559 1559 1559 1559 1560 1560 1560
1513 1517 1521 1524 1528 1531 1534 1537 1539 1542 1544 1546 1547 1549 1550 1551 1552 1553 1554 1554 1555 1556 1556 1556 1557 1557 1557 1558 1558 1559 1559 1559 1559 1559 1559 1559 1559 1559 1559 1560 1560 1560 1560
1511 1515 1519 1522 1526 1529 1532 1535 1538 1540 1543 1544 1546 1548 1549 1550 1552 1553 1554 1554 1555 1556 1556 1557 1557 1557 1558 1558 1559 1559 1559 1559 1560 1560 1560 1560 1560 1560 1560 1560 1560 1561 1560
1509 1513 1517 1521 1524 1527 1530 1534 1536 1539 1541 1543 1545 1547 1548 1550 1551 1552 1553 1554 1555 1556 1557 1557 1557 1558 1558 1558 1559 1559 1560 1560 1560 1560 1560 1560 1560 1560 1560 1560 1560 1560 1560
1507 1511 1515 1519 1522 1526 1529 1532 1535 1537 1540 1542 1544 1546 1547 1549 1550 1551 1553 1554 1555 1556 1557 1557 1558 1558 1559 1559 1559 1560 1560 1560 1560 1560 1560 1560 1560 1560 1560 1560 1560 1560 1560
1506 1510 1514 1517 1520 1524 1527 1530 1533 1536 1538 1540 1543 1544 1546 1548 1549 1551 1552 1554 1555 1556 1557 1557 1558 1559 1559 1560 1560 1560 1560 1560 1560 1561 1560 1560 1560 1560 1560 1559 1559 1559 1559
1506 1509 1513 1516 1519 1522 1525 1528 1531 1534 1536 1539 1541 1543 1545 1547 1548 1550 1552 1553 1554 1555 1556 1557 1558 1559 1559 1559 1560 1560 1560 1560 1560 1561 1560 1560 1560 1560 1560 1559 1559 1559 1559
1505 1508 1511 1514 1517 1520 1523 1526 1529 1532 1534 1537 1539 1541 1543 1545 1547 1549 1550 1552 1554 1555 1556 1557 1557 1558 1559 1559 1560 1560 1560 1560 1560 1560 1560 1560 1560 1559 1559 1559 1559 1558 1558
1504 1506 1509 1512 1515 1518 1521 1523 1526 1529 1532 1534 1537 1539 1541 1543 1545 1547 1549 1551 1552 1554 1555 1556 1556 1557 1558 1558 1559 1559 1560 1560 1560 1560 1560 1560 1559 1559 1559 1558 1558 1558 1557
1502 1505 1508 1510 1513 1515 1518 1521 1524 1527 1529 1532 1534 1537 1539 1541 1543 1545 1547 1549 1551 1552 1553 1554 1555 1556 1557 1557 1558 1559 1559 1559 1559 1559 1559 1559 1558 1558 1558 1557 1557 1557 1556
1500 1503 1505 1508 1510 1513 1515 1518 1521 1524 1527 1529 1531 1534 1536 1538 1540 1543 1545 1547 1548 1550 1551 1553 1554 1554 1555 1556 1557 1557 1558 1558 1558 1558 1558 1557 1557 1557 1557 1556 1556 1555 1555
1499 1501 1503 1506 1508 1511 1513 1516 1519 1521 1524 1526 1529 1531 1533 1536 1538 1540 1542 1544 1546 1548 1549 1551 1552 1553 1554 1554 1555 1556 1556 1556 1556 1556 1556 1556 1556 1556 1555 1555 1554 1554 1553
1497 1499 1501 1504 1506 1509 1511 1514 1516 1519 1522 1524 1526 1528 1530 1533 1535 1537 1539 1541 1543 1545 1547 1548 1550 1551 1552 1552 1553 1554 1554 1554 1554 1554 1554 1554 1554 1554 1554 1553 1552 1552 1551
1496 1498 1500 1502 1504 1506 1509 1511 1514 1516 1518 1521 1523 1525 1527 1530 1532 1534 1536 1538 1541 1543 1544 1546 1547 1548 1549 1550 1551 1552 1552 1552 1552 1552 1552 1552 1552 1552 1551 1551 1550 1549 1548
1494 1496 1498 1500 1502 1504 1507 1509 1511 1514 1516 1518 1521 1523 1525 1527 1529 1532 1534 1536 1538 1540 1542 1543 1545 1546 1547 1548 1549 1549 1550 1550 1550 1549 1549 1550 1550 1549 1549 1548 1547 1546 1546
1492 1494 1496 1498 1500 1502 1504 1506 1508 1511 1513 1516 1518 1521 1523 1525 1527 1529 1531 1534 1535 1537 1539 1540 1542 1543 1544 1545 1546 1547 1547 1547 1547 1547 1547 1547 1547 1546 1546 1545 1544 1543 1543
1491 1493 1495 1496 1498 1500 1502 1504 1506 1508 1511 1513 1515 1518 1520 1522 1524 1527 1529 1531 1533 1534 1536 1537 1539 1540 1541 1542 1543 1543 1544 1544 1544 1544 1544 1544 1544 1543 1543 1542 1541 1540 1539
1490 1491 1493 1495 1496 1498 1500 1502 1504 1506 1508 1510 1512 1515 1517 1520 1522 1524 1526 1528 1529 1531 1532 1534 1535 1537 1537 1538 1539 1540 1540 1540 1540 1541 1541 1541 1540 1540 1540 1539 1538 1538 1536
1488 1490 1491 1493 1494 1496 1497 1499 1501 1503 1505 1508 1510 1512 1514 1516 1519 1521 1522 1524 1526 1527 1529 1531 1532 1533 1534 1535 1536 1536 1537 1537 1537 1537 1537 1537 1537 1537 1536 1536 1535 1534 1533
1486 1488 1489 1491 1492 1493 1495 1497 1499 1501 1503 1505 1507 1509 1511 1513 1515 1517 1519 1521 1523 1525 1526 1528 1529 1530 1531 1532 1532 1533 1533 1534 1534 1534 1534 1534 1534 1534 1533 1533 1532 1531 1530